Date String (YYYY-MM-DD hh:mm:ss) UTC,Instrument flags,absolute air pressure of the measurement (hPa),sample flow rate (lpm),inlet stack bypass flow (lpm),air temperature of the measurement (°C),ambient temperature measured by the external sensor (°C),aerosol sample conditioner tube jacket temperature (°C),OPC LED temperature (°C),internal box temperature (°C),relative humidity of the measurement (%),span deviation,mass concentration of particles derived from Lorenz-Mie calculation of OPC scattering (μg/m³),mass concentration of particles derived from Lorenz-Mie calculation of OPC scattering (μg/m³),mass concentration of particles derived from Lorenz-Mie calculation of OPC scattering (μg/m³)
DateTimeUTC,F1_M11,P_M11,Q1_M11,Q2_M11,T1_M11,T2_M11,T3_M11,T4_M11,T5_M11,U1_M11,ZSPAN_M11,X2_M11,X0_M11,X1_M11
2023-08-24 23:00:00,SystemResetWarning,0831.6,5.00,000.00,027.4,025.1,000.0,035.7,029.2,33.5,0000.4,0007.63,0016.46,0006.48
2023-08-24 23:01:00,SystemResetWarning,0831.6,5.00,000.00,027.5,025.6,000.0,035.7,029.3,32.8,0000.8,0007.62,0016.21,0006.48
2023-08-24 23:02:00,SystemResetWarning,0831.6,4.99,000.00,027.6,026.0,000.0,035.8,029.4,32.9,0000.9,0007.62,0016.87,0006.48
2023-08-24 23:03:00,SystemResetWarning,0831.5,5.00,000.00,027.6,026.1,000.0,035.8,029.4,32.3,0001.0,0007.64,0017.77,0006.47
2023-08-24 23:04:00,SystemResetWarning,0831.6,4.99,000.00,027.6,024.8,000.0,035.7,029.2,32.3,0000.7,0007.66,0018.00,0006.44
2023-08-24 23:05:00,SystemResetWarning,0831.6,5.01,000.00,027.5,024.1,000.0,035.6,029.0,32.7,0000.9,0007.64,0019.32,0006.43
2023-08-24 23:06:00,SystemResetWarning,0831.6,5.01,000.00,027.4,024.2,000.0,035.6,029.0,32.9,0000.6,0007.69,0019.82,0006.44
2023-08-24 23:07:00,SystemResetWarning,0831.6,5.00,000.00,027.4,024.6,000.0,035.7,029.0,32.9,0000.6,0007.67,0019.68,0006.45
2023-08-24 23:08:00,SystemResetWarning,0831.6,5.01,000.00,027.4,025.1,000.0,035.7,029.2,32.9,0001.2,0007.74,0019.62,0006.47
2023-08-24 23:09:00,SystemResetWarning,0831.5,5.00,000.00,027.5,025.6,000.0,035.7,029.3,33.0,0001.1,0007.76,0019.50,0006.47
2023-08-24 23:10:00,SystemResetWarning,0831.6,4.99,000.00,027.6,026.0,000.0,035.8,029.4,33.1,0000.9,0007.72,0018.31,0006.47
2023-08-24 23:11:00,SystemResetWarning,0831.5,4.98,000.00,027.6,025.4,000.0,035.7,029.3,33.5,0000.6,0007.69,0017.70,0006.46
2023-08-24 23:12:00,SystemResetWarning,0831.5,5.00,000.00,027.5,024.0,000.0,035.6,029.0,32.8,0000.8,0007.66,0018.03,0006.44
2023-08-24 23:13:00,SystemResetWarning,0831.5,5.01,000.00,027.4,023.9,000.0,035.6,028.9,32.9,0000.7,0007.62,0017.90,0006.43
2023-08-24 23:14:00,SystemResetWarning,0831.5,5.02,000.00,027.4,024.3,000.0,035.6,028.9,33.3,0000.8,0007.61,0016.96,0006.43
2023-08-24 23:15:00,SystemResetWarning,0831.5,4.98,000.00,027.4,024.7,000.0,035.7,029.1,33.6,0000.8,0007.62,0017.14,0006.44
2023-08-24 23:16:00,SystemResetWarning,0831.5,4.99,000.00,027.4,025.2,000.0,035.7,029.2,33.4,0000.6,0007.63,0016.43,0006.46
2023-08-24 23:17:00,SystemResetWarning,0831.5,5.00,000.00,027.5,025.7,000.0,035.7,029.3,33.5,0001.1,0007.64,0015.38,0006.46
2023-08-24 23:18:00,SystemResetWarning,0831.5,5.00,000.00,027.6,026.1,000.0,035.7,029.5,33.5,0001.4,0007.65,0015.69,0006.47
2023-08-24 23:19:00,SystemResetWarning,0831.5,5.01,000.00,027.6,026.2,000.0,035.8,029.5,33.6,0001.3,0007.64,0015.42,0006.47
2023-08-24 23:20:00,SystemResetWarning,0831.6,4.99,000.00,027.6,024.9,000.0,035.7,029.2,33.8,0001.6,0007.59,0015.30,0006.49
2023-08-24 23:21:00,SystemResetWarning,0831.5,5.00,000.00,027.5,024.1,000.0,035.6,029.0,34.1,0001.8,0007.62,0015.21,0006.50
2023-08-24 23:22:00,SystemResetWarning,0831.5,5.01,000.00,027.5,024.3,000.0,035.6,029.0,34.2,0001.8,0007.64,0015.76,0006.52
2023-08-24 23:23:00,SystemResetWarning,0831.6,5.00,000.00,027.4,024.6,000.0,035.7,029.0,33.9,0001.4,0007.63,0015.65,0006.53
2023-08-24 23:24:00,SystemResetWarning,0831.6,5.00,000.00,027.5,025.1,000.0,035.7,029.2,33.9,0001.7,0007.69,0015.61,0006.55
2023-08-24 23:25:00,SystemResetWarning,0831.6,5.00,000.00,027.5,025.6,000.0,035.7,029.3,33.8,0001.4,0007.70,0016.01,0006.57
2023-08-24 23:26:00,SystemResetWarning,0831.6,5.00,000.00,027.6,026.0,000.0,035.8,029.4,33.7,0001.7,0007.69,0015.68,0006.57
2023-08-24 23:27:00,SystemResetWarning,0831.6,4.99,000.00,027.6,025.3,000.0,035.7,029.3,33.5,0002.3,0007.63,0015.29,0006.56
2023-08-24 23:28:00,SystemResetWarning,0831.6,5.00,000.00,027.5,023.9,000.0,035.6,028.9,33.9,0002.1,0007.59,0015.39,0006.56
2023-08-24 23:29:00,SystemResetWarning,0831.6,5.01,000.00,027.4,023.8,000.0,035.6,028.8,34.5,0001.7,0007.53,0014.57,0006.55
2023-08-24 23:30:00,SystemResetWarning,0831.7,5.01,000.00,027.4,024.1,000.0,035.6,028.8,34.7,0001.9,0007.51,0015.40,0006.54
2023-08-24 23:31:00,SystemResetWarning,0831.6,5.00,000.00,027.4,024.6,000.0,035.6,029.0,34.9,0001.8,0007.52,0015.83,0006.52
2023-08-24 23:32:00,SystemResetWarning,0831.6,5.00,000.00,027.4,025.1,000.0,035.7,029.2,34.8,0001.7,0007.55,0016.13,0006.52
2023-08-24 23:33:00,SystemResetWarning,0831.7,5.00,000.00,027.5,025.6,000.0,035.7,029.3,34.6,0002.1,0007.55,0015.88,0006.51
2023-08-24 23:34:00,SystemResetWarning,0831.7,5.00,000.00,027.5,026.0,000.0,035.7,029.4,34.5,0002.1,0007.59,0016.11,0006.49
2023-08-24 23:35:00,SystemResetWarning,0831.7,4.99,000.00,027.6,026.1,000.0,035.7,029.4,34.7,0001.8,0007.57,0016.90,0006.49
2023-08-24 23:36:00,SystemResetWarning,0831.7,4.99,000.00,027.6,024.7,000.0,035.7,029.1,34.8,0001.5,0007.57,0016.34,0006.47
2023-08-24 23:37:00,SystemResetWarning,0831.6,5.01,000.00,027.5,023.8,000.0,035.6,028.9,34.8,0001.0,0007.62,0016.87,0006.48
2023-08-24 23:38:00,SystemResetWarning,0831.6,5.00,000.00,027.4,024.0,000.0,035.6,028.9,35.1,0001.1,0007.62,0016.98,0006.49
2023-08-24 23:39:00,SystemResetWarning,0831.6,5.02,000.00,027.6,024.4,000.0,035.6,029.1,34.9,0001.3,0007.64,0016.90,0006.50
2023-08-24 23:40:00,SystemResetWarning,0831.7,4.98,000.00,027.8,024.9,000.0,035.7,029.3,34.8,0001.9,0007.64,0017.14,0006.50
2023-08-24 23:41:00,SystemResetWarning,0831.7,5.02,000.00,027.9,025.4,000.0,035.7,029.4,34.5,0001.8,0007.64,0016.83,0006.50
2023-08-24 23:42:00,SystemResetWarning,0831.7,4.99,000.00,028.1,025.8,000.0,035.8,029.5,34.5,0001.8,0007.64,0016.93,0006.51
2023-08-24 23:43:00,SystemResetWarning,0831.8,5.00,000.00,028.2,026.2,000.0,035.9,029.6,34.4,0001.7,0007.65,0016.70,0006.51
2023-08-24 23:44:00,SystemResetWarning,0831.7,4.99,000.00,028.2,025.6,000.0,035.9,029.5,34.0,0001.3,0007.69,0016.73,0006.51
2023-08-24 23:45:00,SystemResetWarning,0831.7,5.00,000.00,028.2,024.3,000.0,035.8,029.1,34.1,0001.2,0007.69,0016.63,0006.52
2023-08-24 23:46:00,SystemResetWarning,0831.7,5.01,000.00,028.1,024.0,000.0,035.8,029.0,34.3,0001.3,0007.66,0015.52,0006.52
2023-08-24 23:47:00,SystemResetWarning,0831.7,5.01,000.00,028.1,024.3,000.0,035.9,029.0,34.4,0001.5,0007.68,0016.38,0006.53
2023-08-24 23:48:00,SystemResetWarning,0831.7,4.99,000.00,028.0,024.7,000.0,036.0,029.2,34.2,0001.7,0007.67,0016.36,0006.53
2023-08-24 23:49:00,SystemResetWarning,0831.7,5.00,000.00,028.1,025.1,000.0,036.0,029.3,34.2,0001.7,0007.66,0016.35,0006.51
2023-08-24 23:50:00,SystemResetWarning,0831.7,5.00,000.00,028.1,025.6,000.0,036.1,029.5,34.0,0001.7,0007.70,0016.50,0006.48
2023-08-24 23:51:00,SystemResetWarning,0831.7,4.99,000.00,028.2,026.0,000.0,036.1,029.6,33.8,0001.6,0007.77,0016.45,0006.48
2023-08-24 23:52:00,SystemResetWarning,0831.8,5.00,000.00,028.2,026.2,000.0,036.1,029.6,33.8,0001.4,0007.78,0016.35,0006.47
2023-08-24 23:53:00,SystemResetWarning,0831.7,4.99,000.00,028.2,024.9,000.0,036.1,029.3,33.8,0001.0,0007.75,0016.16,0006.45
2023-08-24 23:54:00,SystemResetWarning,0831.7,5.00,000.00,028.1,024.0,000.0,036.0,029.1,34.1,0000.6,0007.68,0015.81,0006.44
2023-08-24 23:55:00,SystemResetWarning,0831.7,5.01,000.00,028.0,024.0,000.0,036.0,029.0,34.4,0000.7,0007.65,0015.52,0006.44
2023-08-24 23:56:00,SystemResetWarning,0831.8,5.01,000.00,028.0,024.4,000.0,036.0,029.1,34.6,0000.8,0007.60,0015.40,0006.43
2023-08-24 23:57:00,SystemResetWarning,0832.3,5.00,000.00,027.9,024.8,000.0,036.1,029.2,34.8,0000.6,0007.59,0015.21,0006.43
2023-08-24 23:58:00,SystemResetWarning,0832.0,5.00,000.00,028.0,025.3,000.0,036.1,029.4,34.8,0000.5,0007.52,0014.21,0006.41
2023-08-24 23:59:00,SystemResetWarning,0831.8,5.00,000.00,028.0,025.8,000.0,036.1,029.5,34.8,0000.5,0007.48,0014.64,0006.40
